Showing default

WGS 8 (USA 272), 41879

Orbit data source: Space-Track

WGS 8 (USA 272), 41879 is a payload satellite owned by USAF SMC (US) in GEO that was launched on Wed, 07 Dec 2016 UTC via a DELTA 4M+(5,4) launch vehicle from the Air Force Eastern Test Range (AFETR). Payload-class satellites include a variety of spacecraft equipped with specific instruments for various scientific and technological missions. These include communications satellites like Starlink; space stations such as the ISS; scientific satellites like the Hubble; Earth observation satellites from companies like Planet Labs, Umbra, and HawkEye 360; GPS; miniature CubeSats for education and research; and military/defense satellites.

Not visible in the next 10 days
Identifier
41879, 2016-075A
Orbit
GEO
Country
Flag of USUS
Related business
Manufacturer
Boeing/ES
Mission
Operational Defense Communications
Bus & Motor
BSS-702HP, R-4D-15-375
Mass
5,987 kg wet, ~3,400 kg dry
Launch date (UTC)
2016-12-07 (10 years ago)
Launch vehicle
DELTA 4M+(5,4)
Launch site
Air Force Eastern Test Range (AFETR)
Object type
Payload
Rocket body
Debris
Shape & HBR
Box + 2 Pan, 20.4 m
Radar Cross Section
52.962 m², Large (>1 m²)

Expand to show TLE details & history
Last TLE update: 2 days ago

TLE from 2 days ago
0 WGS 8 (USA 272)
1 41879U 16075A   26171.16294767  .00000000  00000-0  00000-0 0  9997
2 41879   0.0419  50.3229 0000307 331.4530  95.0904  1.00268225 34858
Epoch: 2026-06-20T03:54Z
TLE epoch observation values (Epoch: 2026-06-20T03:54:38.678Z)
Latitude
0.05397°
Longitude
149.83961°
Altitude
35,787.188 km
Speed
3.075 km/s
True Right ascension
07h 47m 31s
True Declination
0° 03' 14"
Sunlit
Object was in daylight at epoch
Visualization orbit readout
Latitude
Unknown
Longitude
Unknown
Altitude
Unknown
Speed
Unknown
Apparent Right ascension
Unknown
Apparent Declination
Unknown
Sunlit
N/A
Visualization observer readout
Local Sidereal Time
21:35:57
Azimuth
Unknown
Elevation
Unknown
Doppler factor
Unknown
Orbital elements
Apogee altitude
35,789.958 km
Perigee altitude
35,787.369 km
Semi-major axis
42,166.8 km
Eccentricity
0.00003
Inclination
0.0419°
RAAN
50.3229°
Arg. of periapsis
331.453°
True anomaly
95.0939°
Mean anomaly
95.0904°
Eccentric anomaly
95.09215°
Mean motion
0.25066 °/min
Orbital period
1,436.2 mins
BSTAR
0
Loading maneuver chart data...
Computing Atmospheric mass density...
Loading historical data...
Loading historical data...
Loading historical data...
Loading historical data...
Loading historical data...
Loading historical data...
Loading historical data...
Other satellites on launch #75 in the year 2016 (2016-12-07 UTC)

Documentation

Showing up to 5 results
|